Showing default

RESURS P5, 62430

Orbit data source: Space-Track

RESURS P5, 62430 is a payload satellite owned by TsSKB-Progress (CIS) in SSO that was launched on Wed, 25 Dec 2024 UTC via a SOYUZ-2-1B launch vehicle from the Tyuratam Missile And Space Complex (TTMTR). Payload-class satellites include a variety of spacecraft equipped with specific instruments for various scientific and technological missions. These include communications satellites like Starlink; space stations such as the ISS; scientific satellites like the Hubble; Earth observation satellites from companies like Planet Labs, Umbra, and HawkEye 360; GPS; miniature CubeSats for education and research; and military/defense satellites.

Loading next visibility...
Identifier
62430, 2024-250A
Orbit
SSO
Country
Flag of CISCIS
Related business
Manufacturer
TSSKBP?
Mission
Operational Civil Imaging
Bus & Motor
RESURS P, Unknown motor
Mass
~6,000 kg wet, ~5,800 kg dry
Launch date (UTC)
2024-12-25 (1 year ago)
Launch vehicle
SOYUZ-2-1B
Launch site
Tyuratam Missile And Space Complex (TTMTR)
Object type
Payload
Rocket body
Debris
Shape & HBR
Cyl + 2 Pan, 6.5 m
Radar Cross Section
27.080 m², Large (>1 m²)

Expand to show TLE details & history
Last TLE update: 10 hours ago

TLE from 10 hours ago
0 RESURS P5
1 62430U 24250A   26171.43444676  .00002383  00000-0  79344-4 0  9990
2 62430  97.2785  96.7121 0001843 127.9346 232.2063 15.32101946 83044
Epoch: 2026-06-20T10:25Z
TLE epoch observation values (Epoch: 2026-06-20T10:25:36.200Z)
Latitude
0.00002°
Longitude
31.66214°
Altitude
473.426 km
Speed
7.629 km/s
True Right ascension
06h 26m 50s
True Declination
0° 00' 00"
Sunlit
Object was in daylight at epoch
Visualization orbit readout
Latitude
Unknown
Longitude
Unknown
Altitude
Unknown
Speed
Unknown
Apparent Right ascension
Unknown
Apparent Declination
Unknown
Sunlit
N/A
Visualization observer readout
Local Sidereal Time
07:24:20
Azimuth
Unknown
Elevation
Unknown
Doppler factor
Unknown
Orbital elements
Apogee altitude
467.748 km
Perigee altitude
465.225 km
Semi-major axis
6,844.623 km
Eccentricity
0.00018
Inclination
97.2785°
RAAN
96.7121°
Arg. of periapsis
127.9346°
True anomaly
232.18961°
Mean anomaly
232.2063°
Eccentric anomaly
232.19796°
Mean motion
3.83282 °/min
Orbital period
93.93 mins
BSTAR
0.000079344
Loading maneuver chart data...
Computing Atmospheric mass density...
Loading historical data...
Loading historical data...
Loading historical data...
Loading historical data...
Loading historical data...
Loading historical data...
Loading historical data...
Other satellites on launch #250 in the year 2024 (2024-12-25 UTC)

Documentation

Showing up to 5 results
|